EW4760 Weather Reports


time (UTC)temp
F
wind
direction
speed
knots
gust
knots
rain 1hr
in
rain 24hr
in
rain mn
in
humidity
%
barometer
mb
20260505011701 64 300 7.0 22.6 0.00 0.00 0.00 37 1004.9
20260505011201 65 332 7.8 23.5 0.00 0.00 0.00 36 1004.9
20260505010701 66 11 7.0 23.5 0.00 0.00 0.00 36 1004.6
20260505010200 67 32 6.1 13.9 0.00 0.00 0.00 35 1004.6
20260505005700 68 9 6.1 13.0 0.00 0.00 0.00 35 1004.4
20260505005201 68 323 7.0 13.9 0.00 0.00 0.00 34 1004.6
20260505004702 69 7 6.1 14.8 0.00 0.00 0.00 34 1004.6
20260505004201 69 328 4.3 14.8 0.00 0.00 0.00 35 1004.4
20260505003701 69 344 4.3 13.9 0.00 0.00 0.00 35 1004.3
20260505003432 69 51 5.2 13.9 0.00 0.00 0.00 35 1004.2
20260505002700 69 162 6.1 13.0 0.00 0.00 0.00 34 1004.2
20260505002204 69 304 6.1 13.0 0.00 0.00 0.00 34 1004.3
20260505001704 69 30 7.0 13.9 0.00 0.00 0.00 34 1004.2
20260505001204 70 291 6.1 13.9 0.00 0.00 0.00 33 1004.1
20260505000703 70 17 5.2 13.9 0.00 0.00 0.00 33 1003.9
20260505000204 71 266 5.2 13.9 0.00 0.00 0.00 33 1003.8
20260504235703 71 296 4.3 10.4 0.00 0.00 0.00 33 1003.8
20260504235204 72 356 5.2 13.9 0.00 0.00 0.00 33 1003.8
20260504234704 72 37 6.1 13.9 0.00 0.00 0.00 32 1003.8
20260504234435 71 333 4.3 13.0 0.00 0.00 0.00 34 1004.0
20260504233703 71 330 4.3 13.0 0.00 0.00 0.00 34 1004.1
20260504233203 72 290 5.2 13.9 0.00 0.00 0.00 33 1004.0
20260504232703 72 327 6.1 13.9 0.00 0.00 0.00 33 1003.9
20260504232435 72 28 6.1 13.9 0.00 0.00 0.00 32 1003.9
20260504231704 73 313 5.2 13.0 0.00 0.00 0.00 32 1003.9
20260504231204 73 333 6.1 13.0 0.00 0.00 0.00 32 1003.8
20260504230934 73 321 7.0 15.6 0.00 0.00 0.00 31 1003.7
20260504230203 74 338 6.1 15.6 0.00 0.00 0.00 31 1003.6
20260504225703 74 313 6.1 15.6 0.00 0.00 0.00 31 1003.5
20260504225204 75 322 6.1 13.0 0.00 0.00 0.00 30 1003.5
20260504224703 76 16 5.2 13.0 0.00 0.00 0.00 30 1003.6
20260504224204 76 27 5.2 10.4 0.00 0.00 0.00 29 1003.5
20260504223703 76 27 6.1 11.3 0.00 0.00 0.00 30 1003.2
20260504223203 76 337 6.1 13.0 0.00 0.00 0.00 29 1003.0
20260504222703 77 313 5.2 13.0 0.00 0.00 0.00 29 1002.7
20260504222204 77 328 4.3 13.0 0.00 0.00 0.00 30 1002.8
20260504221704 77 340 5.2 13.0 0.00 0.00 0.00 29 1002.8
20260504221204 78 321 4.3 12.2 0.00 0.00 0.00 32 1002.6
20260504220703 77 330 4.3 8.7 0.00 0.00 0.00 32 1002.5
20260504220203 77 333 4.3 9.6 0.00 0.00 0.00 32 1002.3
20260504215703 77 299 4.3 9.6 0.00 0.00 0.00 32 1002.4
20260504215203 77 306 4.3 14.8 0.00 0.00 0.00 32 1002.2
20260504214704 78 333 5.2 14.8 0.00 0.00 0.00 31 1002.2
20260504214204 79 336 5.2 13.0 0.00 0.00 0.00 31 1002.2
20260504213935 80 325 5.2 10.4 0.00 0.00 0.00 31 1002.1
20260504213203 80 306 4.3 10.4 0.00 0.00 0.00 31 1002.2
20260504212703 81 47 5.2 13.9 0.00 0.00 0.00 33 1002.1
20260504212204 80 282 5.2 13.9 0.00 0.00 0.00 32 1001.9
20260504211703 81 326 4.3 10.4 0.00 0.00 0.00 33 1001.9
20260504211434 81 2 3.5 10.4 0.00 0.00 0.00 34 1001.9
20260504210704 81 38 4.3 9.6 0.00 0.00 0.00 35 1001.9
20260504210203 81 330 4.3 11.3 0.00 0.00 0.00 34 1001.8
20260504205654 80 325 4.3 11.3 0.00 0.00 0.00 36 1002.1
20260504205149 80 351 4.3 10.4 0.00 0.00 0.00 34 1001.9
20260504204643 81 336 4.3 10.4 0.00 0.00 0.00 34 1001.9
20260504204137 81 343 4.3 9.6 0.00 0.00 0.00 33 1001.9
20260504203630 81 313 5.2 10.4 0.00 0.00 0.00 32 1001.8
20260504203131 82 315 4.3 10.4 0.00 0.00 0.00 31 1001.9
20260504202630 82 321 3.5 9.6 0.00 0.00 0.00 32 1001.9
20260504202132 82 14 3.5 9.6 0.00 0.00 0.00 31 1001.9
20260504201631 82 276 4.3 10.4 0.00 0.00 0.00 31 1001.9
20260504201131 82 316 4.3 10.4 0.00 0.00 0.00 30 1001.9
20260504200631 82 311 5.2 11.3 0.00 0.00 0.00 30 1001.8
20260504200402 82 350 4.3 11.3 0.00 0.00 0.00 29 1001.8
20260504195901 83 336 3.5 10.4 0.00 0.00 0.00 30 1001.8
20260504195131 83 326 4.3 9.6 0.00 0.00 0.00 30 1001.8
20260504194631 83 333 4.3 9.6 0.00 0.00 0.00 29 1001.8
20260504194132 83 296 4.3 9.6 0.00 0.00 0.00 31 1001.7
20260504193632 83 342 5.2 9.6 0.00 0.00 0.00 29 1001.7
20260504193132 83 355 4.3 9.6 0.00 0.00 0.00 28 1001.7
20260504192631 83 339 4.3 9.6 0.00 0.00 0.00 28 1001.7
20260504192131 82 326 5.2 10.4 0.00 0.00 0.00 29 1001.7
20260504191632 83 323 5.2 10.4 0.00 0.00 0.00 28 1001.8
20260504191129 83 334 5.2 13.9 0.00 0.00 0.00 27 1001.7
20260504190900 83 338 5.2 13.9 0.00 0.00 0.00 30 1001.7
20260504190130 83 346 5.2 13.9 0.00 0.00 0.00 28 1001.7
20260504185628 83 323 4.3 13.9 0.00 0.00 0.00 28 1001.7
20260504185129 83 338 4.3 9.6 0.00 0.00 0.00 27 1001.6
20260504184629 83 311 3.5 9.6 0.00 0.00 0.00 26 1001.7
20260504184129 83 295 4.3 8.7 0.00 0.00 0.00 26 1001.7
20260504183629 83 330 4.3 10.4 0.00 0.00 0.00 27 1001.8
20260504183129 83 232 3.5 10.4 0.00 0.00 0.00 26 1001.8
20260504182629 82 316 4.3 9.6 0.00 0.00 0.00 29 1001.7
20260504182400 82 319 4.3 9.6 0.00 0.00 0.00 26 1001.8
20260504181629 82 330 4.3 12.2 0.00 0.00 0.00 27 1001.8
20260504181359 82 11 4.3 12.2 0.00 0.00 0.00 26 1001.9
20260504180630 82 328 4.3 11.3 0.00 0.00 0.00 29 1001.8
20260504180129 82 46 4.3 11.3 0.00 0.00 0.00 26 1001.8
20260504175628 81 309 4.3 11.3 0.00 0.00 0.00 26 1001.8
20260504175400 81 311 4.3 12.2 0.00 0.00 0.00 27 1001.8
20260504174632 81 344 3.5 12.2 0.00 0.00 0.00 29 1001.8
20260504174131 81 303 3.5 10.4 0.00 0.00 0.00 30 1001.9
20260504173631 81 230 3.5 10.4 0.00 0.00 0.00 29 1002.1
20260504173131 81 315 3.5 10.4 0.00 0.00 0.00 30 1002.2
20260504172631 80 344 4.3 13.9 0.00 0.00 0.00 31 1002.3
20260504172131 80 246 4.3 13.9 0.00 0.00 0.00 30 1002.3
20260504171632 80 343 4.3 13.0 0.00 0.00 0.00 30 1002.3
20260504171132 80 333 4.3 13.0 0.00 0.00 0.00 31 1002.3
20260504170631 80 333 3.5 8.7 0.00 0.00 0.00 32 1002.4
20260504170131 79 335 2.6 7.8 0.00 0.00 0.00 35 1002.5
20260504160131 74 2 2.6 7.0 0.00 0.00 0.00 42 1002.6
20260504151131 68 232 2.6 6.1 0.00 0.00 0.00 51 1002.8
20260504150631 68 237 2.6 6.1 0.00 0.00 0.00 50 1002.8
20260504150402 68 282 1.7 4.3 0.00 0.00 0.00 51 1002.8
20260504141129 63 348 2.6 7.8 0.00 0.00 0.00 52 1002.8
20260504140630 63 342 1.7 4.3 0.00 0.00 0.00 54 1002.8
20260504140129 62 315 1.7 6.1 0.00 0.00 0.00 54 1002.7
20260504130629 58 333 0.9 2.6 0.00 0.00 0.00 60 1002.6
20260504130400 58 326 0.9 3.5 0.00 0.00 0.00 60 1002.5
20260504120129 49 233 0.0 0.0 0.00 0.00 0.00 72 1001.9
20260504110629 52 233 0.0 0.9 0.00 0.00 0.00 64 1001.9
20260504110129 53 233 0.0 0.9 0.00 0.00 0.00 62 1001.9
20260504100129 57 209 0.9 3.5 0.00 0.00 0.00 54 1002.3
20260504090118 59 129 2.6 7.0 0.00 0.00 0.00 50 1002.7
20260504081614 60 113 1.7 6.1 0.00 0.00 0.00 48 1003.5
20260504081345 60 220 1.7 6.1 0.00 0.00 0.00 48 1003.6
20260504080614 60 111 2.6 5.2 0.00 0.00 0.00 48 1003.7
20260504080112 60 101 2.6 5.2 0.00 0.00 0.00 48 1003.7
20260504070332 61 172 2.6 5.2 0.00 0.00 0.00 47 1005.1
20260504045600 63 105 1.7 3.5 0.00 0.00 0.00 43 1006.4
20260504045101 63 105 1.7 3.5 0.00 0.00 0.00 43 1006.4
20260504044832 63 105 1.7 3.5 0.00 0.00 0.00 43 1006.6
20260504044331 63 60 1.7 2.6 0.00 0.00 0.00 43 1006.7
20260504043601 63 75 0.9 2.6 0.00 0.00 0.00 43 1006.7
20260504043101 63 86 1.7 2.6 0.00 0.00 0.00 43 1006.8
20260504042600 63 68 0.9 2.6 0.00 0.00 0.00 44 1006.9
20260504042101 63 115 0.9 2.6 0.00 0.00 0.00 43 1006.9
20260504041833 63 115 1.7 3.5 0.00 0.00 0.00 43 1006.9
20260504041101 63 85 0.9 3.5 0.00 0.00 0.00 43 1007.1
20260504040601 63 126 1.7 3.5 0.00 0.00 0.00 44 1007.3
20260504035601 63 123 0.9 2.6 0.00 0.00 0.00 44 1007.4
20260504035103 63 78 0.9 2.6 0.00 0.00 0.00 44 1007.5
20260504034602 63 115 0.9 1.7 0.00 0.00 0.00 43 1007.6
20260504034101 63 122 0.0 0.9 0.00 0.00 0.00 43 1007.5
20260504033601 63 104 0.0 1.7 0.00 0.00 0.00 42 1007.5
20260504033101 64 104 0.9 1.7 0.00 0.00 0.00 42 1007.5
20260504032600 64 122 0.9 1.7 0.00 0.00 0.00 41 1007.6
20260504032101 64 105 0.9 2.6 0.00 0.00 0.00 41 1007.6
20260504031601 65 96 1.7 2.6 0.00 0.00 0.00 41 1007.6
20260504031101 64 64 0.9 1.7 0.00 0.00 0.00 41 1007.5
20260504030601 64 82 0.9 2.6 0.00 0.00 0.00 42 1007.6
20260504030101 65 70 0.9 2.6 0.00 0.00 0.00 42 1007.6
20260504025600 64 62 0.9 2.6 0.00 0.00 0.00 42 1007.6
20260504025103 64 121 0.9 1.7 0.00 0.00 0.00 42 1007.6
20260504024558 65 122 0.0 1.7 0.00 0.00 0.00 41 1007.6
20260504024102 65 69 0.9 1.7 0.00 0.00 0.00 41 1007.7
20260504024058 65 69 0.0 1.7 0.00 0.00 0.00 41 1007.6
20260504023101 65 80 0.0 2.6 0.00 0.00 0.00 43 1007.7
20260504023057 65 68 0.9 2.6 0.00 0.00 0.00 42 1007.7
20260504022056 64 72 0.0 1.7 0.00 0.00 0.00 43 1007.8
20260504021556 65 71 0.0 0.9 0.00 0.00 0.00 44 1007.8
20260504021056 66 71 0.0 0.9 0.00 0.00 0.00 42 1007.8
20260504020556 67 71 0.0 0.9 0.00 0.00 0.00 40 1007.9
20260504020055 67 71 0.0 0.9 0.00 0.00 0.00 39 1007.9
20260504015556 67 71 0.0 0.9 0.00 0.00 0.00 39 1007.8
20260504015054 67 71 0.0 0.9 0.00 0.00 0.00 39 1007.8
20260504014823 68 71 0.0 1.7 0.00 0.00 0.00 40 1007.8
20260504014054 68 72 0.9 2.6 0.00 0.00 0.00 38 1007.8
20260504014050 68 71 0.0 1.7 0.00 0.00 0.00 38 1007.8
20260504013050 69 72 0.9 2.6 0.00 0.00 0.00 37 1007.8
20260504012550 69 72 0.0 1.7 0.00 0.00 0.00 37 1007.8
20260504012050 69 46 0.0 1.7 0.00 0.00 0.00 37 1007.8